Tracking 27079 objects as of 23-Mar-2023
HD Live streaming from Space Station
objects crossing your sky now

ARIANE 42L+3 R/B

Track ARIANE 42L+3 R/B now!


NORAD ID: 23637
Int'l Code: 1995-040B
Perigee: 624.9 km
Apogee: 36,773.8 km
Inclination: 4.8 °
Period: 658.4 minutes
Semi major axis: 25070 km
RCS: 21.0891 m2 (large)
Launch date: August 3, 1995
Source: France (FR)
Launch site: FRENCH GUIANA (FRGUI)

Note: This is a ROCKET BODY
Your satellite tracking list
Your tracking list is empty




NASA's NSSDC Master Catalog

Two Line Element Set (TLE):
1 23637U 95040B   23081.56030115 -.00000022  00000-0  34006-3 0  9995
2 23637   4.8063  41.2596 7209477 246.2804  99.7570  2.18706636220698
Source of the keplerian elements: AFSPC